View from above orbital plane
|
View from above satellite
|
Ground track
|
The orbit data is extracted from the following two-line orbital elements,
1 43803U 18099AX 22136.18295306 .00003718 00000-0 32840-3 0 9992
2 43803 97.6203 204.0186 0014782 21.2461 338.9372 14.96877735188241
Epoch (UTC): | 16 May 2022 04:23:27 |
Eccentricity: | 0.0014782 |
inclination: | 97.6203° |
perigee height: | 566 km |
apogee height: | 587 km |
right ascension of ascending node: | 204.0186° |
argument of perigee: | 21.2461° |
revolutions per day: | 14.96877735 |
mean anomaly at epoch: | 338.9372° |
orbit number at epoch: | 18824 |
The dashed part of the orbit path shows where the satellite is in the earth's shadow,
|
|